• In Portugal
  • List of Countries
  • For 7 days
  • Water Temperature
  • Satellite Maps
  • Weather Map
  • Weather Widgets
  • user-avatar
    Login

    Hourly Weather Bulgan

    Today, 22 June, Friday

    Time Temperature Precipitation Wind Pressure Humidity
    00:00 +13°C° 0 mm 1 mps 625 mmHg 89%
    01:00 +13°C° 0 mm 1 mps 624 mmHg 89%
    02:00 +12°C° 0 mm 0 mps 624 mmHg 89%
    03:00 +11°C° 0 mm 0 mps 624 mmHg 90%
    04:00 +11°C° 0 mm 0 mps 624 mmHg 90%
    05:00 +12°C° 0 mm 0 mps 624 mmHg 86%
    06:00 +13°C° 0 mm 0 mps 624 mmHg 81%
    07:00 +16°C° 0 mm 1 mps 625 mmHg 77%
    08:00 +18°C° 0 mm 1 mps 625 mmHg 71%
    09:00 +19°C° 0 mm 1 mps 625 mmHg 66%
    10:00 +19°C° 0 mm 2 mps 625 mmHg 61%
    11:00 +20°C° 0.2 mm 2 mps 625 mmHg 60%
    12:00 +20°C° 0.2 mm 2 mps 625 mmHg 60%
    13:00 +20°C° 0 mm 2 mps 625 mmHg 60%
    14:00 +21°C° 1.2 mm 1 mps 625 mmHg 62%
    15:00 +21°C° 1.2 mm 1 mps 625 mmHg 64%
    16:00 +21°C° 1.2 mm 1 mps 625 mmHg 66%
    17:00 +19°C° 1.6 mm 2 mps 625 mmHg 71%
    18:00 +18°C° 1.6 mm 2 mps 625 mmHg 77%
    19:00 +17°C° 0 mm 2 mps 625 mmHg 82%
    20:00 +16°C° 0.2 mm 2 mps 625 mmHg 85%
    21:00 +15°C° 0.2 mm 2 mps 625 mmHg 88%
    22:00 +14°C° 0.2 mm 2 mps 625 mmHg 90%
    23:00 +14°C° 0.1 mm 2 mps 625 mmHg 91%

    Tomorrow, 23 June, Saturday

    Time Temperature Precipitation Wind Pressure Humidity
    00:00 +14°C° 0.1 mm 2 mps 626 mmHg 92%
    01:00 +14°C° 0.1 mm 2 mps 626 mmHg 92%
    02:00 +13°C° 0.2 mm 2 mps 626 mmHg 93%
    03:00 +13°C° 0.2 mm 2 mps 626 mmHg 93%
    04:00 +13°C° 0.2 mm 2 mps 626 mmHg 93%
    05:00 +13°C° 0.4 mm 2 mps 626 mmHg 92%
    06:00 +13°C° 0.4 mm 2 mps 626 mmHg 91%
    07:00 +13°C° 0.4 mm 2 mps 626 mmHg 91%
    08:00 +13°C° 0.6 mm 2 mps 626 mmHg 89%
    09:00 +13°C° 0.6 mm 2 mps 626 mmHg 88%
    10:00 +13°C° 0.6 mm 2 mps 626 mmHg 86%
    11:00 +12°C° 0.9 mm 3 mps 626 mmHg 85%
    12:00 +12°C° 0.9 mm 3 mps 626 mmHg 84%
    13:00 +13°C° 0.9 mm 3 mps 626 mmHg 82%
    14:00 +13°C° 1.2 mm 3 mps 626 mmHg 83%
    15:00 +14°C° 1.2 mm 2 mps 626 mmHg 83%
    16:00 +13°C° 1.2 mm 2 mps 626 mmHg 83%
    17:00 +13°C° 0.3 mm 1 mps 626 mmHg 84%
    18:00 +13°C° 0.3 mm 1 mps 626 mmHg 85%
    19:00 +13°C° 0.3 mm 1 mps 625 mmHg 86%
    20:00 +12°C° 0 mm 1 mps 625 mmHg 87%
    21:00 +12°C° 0 mm 1 mps 625 mmHg 88%
    22:00 +11°C° 0 mm 1 mps 625 mmHg 89%
    23:00 +11°C° 0 mm 1 mps 625 mmHg 89%

    Day after tomorrow, 24 June, Sunday

    Time Temperature Precipitation Wind Pressure Humidity
    00:00 +10°C° 0 mm 1 mps 624 mmHg 90%
    01:00 +9°C° 0 mm 2 mps 624 mmHg 90%
    02:00 +9°C° 0 mm 2 mps 624 mmHg 89%
    03:00 +8°C° 0 mm 2 mps 624 mmHg 89%
    04:00 +8°C° 0 mm 2 mps 624 mmHg 89%
    05:00 +9°C° 0 mm 2 mps 624 mmHg 84%
    06:00 +12°C° 0 mm 2 mps 625 mmHg 79%
    07:00 +13°C° 0 mm 2 mps 626 mmHg 74%
    08:00 +14°C° 0 mm 2 mps 626 mmHg 67%
    09:00 +16°C° 0 mm 3 mps 626 mmHg 60%
    10:00 +17°C° 0 mm 3 mps 627 mmHg 52%
    11:00 +18°C° 0 mm 3 mps 627 mmHg 49%
    12:00 +19°C° 0 mm 3 mps 627 mmHg 46%
    13:00 +20°C° 0 mm 3 mps 627 mmHg 44%
    14:00 +20°C° 0 mm 3 mps 626 mmHg 44%
    15:00 +20°C° 0 mm 3 mps 626 mmHg 45%
    16:00 +20°C° 0 mm 3 mps 626 mmHg 46%
    17:00 +19°C° 0.1 mm 2 mps 626 mmHg 52%
    18:00 +18°C° 0.1 mm 2 mps 625 mmHg 59%
    19:00 +18°C° 0.1 mm 1 mps 625 mmHg 65%
    20:00 +16°C° 0.1 mm 1 mps 625 mmHg 67%
    21:00 +14°C° 0.1 mm 1 mps 625 mmHg 69%
    22:00 +13°C° 0.1 mm 1 mps 624 mmHg 71%
    23:00 +13°C° 0.1 mm 1 mps 624 mmHg 73%

    25 June, Monday

    Time Temperature Precipitation Wind Pressure Humidity
    00:00 +12°C° 0.1 mm 1 mps 624 mmHg 74%
    01:00 +12°C° 0.1 mm 1 mps 624 mmHg 75%
    02:00 +11°C° 0 mm 1 mps 624 mmHg 77%
    03:00 +11°C° 0 mm 1 mps 624 mmHg 78%
    04:00 +11°C° 0 mm 1 mps 624 mmHg 79%
    05:00 +12°C° 0 mm 1 mps 625 mmHg 75%
    06:00 +13°C° 0 mm 1 mps 625 mmHg 72%
    07:00 +15°C° 0 mm 1 mps 626 mmHg 69%
    08:00 +16°C° 0 mm 2 mps 626 mmHg 62%
    09:00 +18°C° 0 mm 2 mps 627 mmHg 54%
    10:00 +19°C° 0 mm 3 mps 627 mmHg 47%
    11:00 +20°C° 0 mm 3 mps 627 mmHg 45%
    12:00 +21°C° 0 mm 4 mps 627 mmHg 43%
    13:00 +21°C° 0 mm 4 mps 627 mmHg 40%
    14:00 +21°C° 0 mm 4 mps 627 mmHg 41%
    15:00 +21°C° 0 mm 4 mps 627 mmHg 42%
    16:00 +21°C° 0 mm 5 mps 627 mmHg 43%
    17:00 +20°C° 0 mm 4 mps 627 mmHg 48%
    18:00 +19°C° 0 mm 3 mps 627 mmHg 54%
    19:00 +18°C° 0 mm 2 mps 626 mmHg 59%
    20:00 +17°C° 0 mm 2 mps 626 mmHg 60%
    21:00 +15°C° 0 mm 1 mps 626 mmHg 62%
    22:00 +14°C° 0 mm 1 mps 626 mmHg 63%
    23:00 +13°C° 0 mm 1 mps 626 mmHg 64%

    26 June, Tuesday

    Time Temperature Precipitation Wind Pressure Humidity
    00:00 +13°C° 0 mm 1 mps 626 mmHg 66%
    01:00 +12°C° 0 mm 1 mps 626 mmHg 67%
    02:00 +12°C° 0 mm 1 mps 626 mmHg 67%
    03:00 +12°C° 0 mm 2 mps 627 mmHg 68%
    04:00 +10°C° 0 mm 2 mps 627 mmHg 69%
    05:00 +13°C° 0 mm 2 mps 627 mmHg 67%
    06:00 +14°C° 0 mm 2 mps 628 mmHg 64%
    07:00 +15°C° 0 mm 2 mps 628 mmHg 62%
    08:00 +17°C° 0 mm 3 mps 629 mmHg 57%
    09:00 +19°C° 0 mm 3 mps 629 mmHg 52%
    10:00 +20°C° 0 mm 4 mps 630 mmHg 47%
    11:00 +21°C° 0 mm 4 mps 630 mmHg 45%
    12:00 +22°C° 0 mm 4 mps 630 mmHg 43%
    13:00 +22°C° 0 mm 4 mps 630 mmHg 40%
    14:00 +22°C° 0 mm 4 mps 630 mmHg 40%
    15:00 +24°C° 0 mm 3 mps 630 mmHg 41%
    16:00 +24°C° 0 mm 3 mps 629 mmHg 41%
    17:00 +23°C° 0 mm 2 mps 629 mmHg 46%
    18:00 +21°C° 0 mm 2 mps 629 mmHg 51%
    19:00 +21°C° 0 mm 1 mps 629 mmHg 57%
    20:00 +19°C° 0 mm 1 mps 628 mmHg 58%
    21:00 +18°C° 0 mm 1 mps 628 mmHg 60%
    22:00 +15°C° 0 mm 1 mps 628 mmHg 62%
    23:00 +15°C° 0 mm 1 mps 628 mmHg 63%

    27 June, Wednesday

    Time Temperature Precipitation Wind Pressure Humidity
    00:00 +14°C° 0 mm 1 mps 628 mmHg 64%
    01:00 +14°C° 0 mm 1 mps 628 mmHg 65%
    02:00 +13°C° 0 mm 0 mps 628 mmHg 66%
    03:00 +12°C° 0 mm 0 mps 627 mmHg 67%
    04:00 +12°C° 0 mm 0 mps 627 mmHg 68%
    05:00 +13°C° 0 mm 0 mps 628 mmHg 65%
    06:00 +15°C° 0 mm 0 mps 628 mmHg 62%
    07:00 +16°C° 0 mm 0 mps 629 mmHg 59%
    08:00 +20°C° 0 mm 1 mps 629 mmHg 54%
    09:00 +21°C° 0 mm 1 mps 629 mmHg 50%
    10:00 +23°C° 0 mm 1 mps 629 mmHg 45%
    11:00 +24°C° 0 mm 1 mps 629 mmHg 42%
    12:00 +25°C° 0 mm 1 mps 629 mmHg 40%
    13:00 +26°C° 0 mm 1 mps 629 mmHg 37%
    14:00 +26°C° 0 mm 1 mps 629 mmHg 36%
    15:00 +26°C° 0 mm 1 mps 628 mmHg 36%
    16:00 +27°C° 0 mm 1 mps 628 mmHg 35%
    17:00 +25°C° 0 mm 1 mps 628 mmHg 41%
    18:00 +24°C° 0 mm 1 mps 627 mmHg 46%
    19:00 +23°C° 0 mm 1 mps 627 mmHg 52%
    20:00 +21°C° 0 mm 1 mps 626 mmHg 54%
    21:00 +19°C° 0 mm 2 mps 626 mmHg 55%
    22:00 +18°C° 0 mm 2 mps 626 mmHg 57%
    23:00 +17°C° 0 mm 2 mps 626 mmHg 60%
    Show more